Back to catalog

DMSP 5D-2 F13 DEB

AliveSSO
NORAD 40412·DEBRIS·🇺🇸 United States

Launched Mar 24, 1995 from Vandenberg Space Force Base

Loading…

Next Passes (next 24 hours)

TLE

FreshSource: Space-Track

Epoch: Sep 14, 2026, 06:06 UTC

1 40412U 95015Z   26257.25484282  .00000141  00000-0  84725-4 0  9994
2 40412  98.7053 270.5632 0019930 111.5849 248.7454 14.21037328598581

Track DMSP 5D-2 F13 DEB in real time with AllMySat

Download on the App Store